Tracking 19644 objects as of 24-Apr-2019
HD Live streaming from Space Station
objects crossing your sky now

THORAD DELTA 1 DEB

Track THORAD DELTA 1 DEB now!
10-day predictions


NORAD ID: 17023
Int'l Code: 1974-089EW
Perigee: 1,372.7 km
Apogee: 1,455.7 km
Inclination: 101.2 °
Period: 113.9 minutes
Semi major axis: 7785 km
RCS: 0.042 m2 (small)
Launch date: November 15, 1974
Source: United States (US)
Launch site: AIR FORCE WESTERN TEST RANGE (AFWTR)

Note: This is SATELLITE DEBRIS
aabbcc
Your satellite tracking list
Your tracking list is empty




NASA's NSSDC Master Catalog

Two Line Element Set (TLE):
1 17023U 74089EW  19112.53350566 +.00000002 +00000-0 +24423-3 0  9998
2 17023 101.1940 107.0193 0053267 107.5724 013.5451 12.63854851578564
Source of the keplerian elements: AFSPC